Retour au catalogue

COSMOS 2251 DEB

ActifLEO
NORAD 35771·DEBRIS·🇷🇺 Russia

Lancé Jun 16, 1993 depuis Plesetsk Cosmodrome

Loading…

Prochains Passages (prochaines 24 heures)

TLE

FraisSource: Space-Track

Époque: Sep 14, 2026, 05:21 UTC

1 35771U 93036ARR 26257.22310312  .00006984  00000-0  27872-2 0  9995
2 35771  74.1558 183.9476 0200119  48.3043 313.5030 14.18317287867602

Suivez COSMOS 2251 DEB en temps réel avec AllMySat

Download on the App Store